User: anonymous   Login
Location: Luna
(33.8188°N, 108.9564°W)
Time: 15:25:00
(UTC+00:00)
Language:

QB50P2 - Orbit

View from above orbital plane
View from above orbital plane
View from above satellite
View from above satellite

Ground track
Ground track

The orbit data is extracted from the following two-line orbital elements,

1 40032U 14033Y   23078.83075425  .00006409  00000-0  63615-3 0  9997
2 40032  97.9607  18.3455 0009551 220.9764 139.0737 14.92066881474645
Epoch (UTC): 19 March 2023 19:56:17
Eccentricity: 0.0009551
inclination: 97.9607°
perigee height: 585 km
apogee height: 598 km
right ascension of ascending node: 18.3455°
argument of perigee: 220.9764°
revolutions per day: 14.92066881
mean anomaly at epoch: 139.0737°
orbit number at epoch: 47464

The dashed part of the orbit path shows where the satellite is in the earth's shadow,  

DLR